KD8ZLZ Weather Reports


time (UTC)temp
C
wind
direction
speed
KPH
gust
KPH
rain 1hr
cm
rain 24hr
cm
rain mn
cm
humidity
%
barometer
mb
20260508220535 17 241 6.4 9.7 0.00 0.00 0.00 41 1008.2
20260508220035 18 236 9.7 16.1 0.00 0.00 0.00 40 1008.2
20260508215535 19 216 4.8 12.9 0.00 0.00 0.00 41 1008.6
20260508215035 18 212 6.4 12.9 0.00 0.00 0.00 41 1008.5
20260508214534 18 217 9.7 16.1 0.00 0.00 0.00 41 1008.5
20260508214035 17 210 8.0 17.7 0.00 0.00 0.00 41 1008.5
20260508213554 17 213 8.0 16.1 0.00 0.00 0.00 41 1008.5
20260508213035 18 220 6.4 14.5 0.00 0.00 0.00 42 1008.5
20260508212535 17 213 8.0 17.7 0.00 0.00 0.00 41 1008.5
20260508212035 17 219 11.3 19.3 0.00 0.00 0.00 42 1008.5
20260508211534 17 221 9.7 20.9 0.00 0.00 0.00 42 1008.5
20260508211035 18 225 9.7 17.7 0.00 0.00 0.00 41 1008.9
20260508210535 18 191 6.4 11.3 0.00 0.00 0.00 40 1008.9
20260508210035 18 216 8.0 16.1 0.00 0.00 0.00 42 1008.9
20260508205534 18 213 8.0 16.1 0.00 0.00 0.00 41 1008.9
20260508205055 18 217 9.7 16.1 0.00 0.00 0.00 40 1008.9
20260508204555 20 227 9.7 19.3 0.00 0.00 0.00 39 1009.0
20260508204034 20 233 11.3 20.9 0.00 0.00 0.00 39 1009.0
20260508203535 20 195 6.4 22.5 0.00 0.00 0.00 37 1009.4
20260508203034 19 196 4.8 9.7 0.00 0.00 0.00 39 1009.3
20260508202534 18 211 4.8 12.9 0.00 0.00 0.00 41 1009.7
20260508202035 18 218 6.4 12.9 0.00 0.00 0.00 40 1009.7
20260508201535 18 220 6.4 12.9 0.00 0.00 0.00 40 1009.6
20260508201056 18 234 11.3 17.7 0.00 0.00 0.00 41 1009.6
20260508200534 18 225 9.7 16.1 0.00 0.00 0.00 41 1010.0
20260508200054 19 206 11.3 20.9 0.00 0.00 0.00 40 1009.7
20260508195535 18 208 6.4 16.1 0.00 0.00 0.00 42 1009.9
20260508195035 17 233 3.2 6.4 0.00 0.00 0.00 45 1009.9
20260508194534 17 255 6.4 9.7 0.00 0.00 0.00 45 1009.9
20260508194034 17 244 4.8 11.3 0.00 0.00 0.00 42 1009.9
20260508193534 18 219 8.0 17.7 0.00 0.00 0.00 44 1010.3
20260508193035 18 183 3.2 11.3 0.00 0.00 0.00 45 1010.3
20260508192535 18 182 3.2 11.3 0.00 0.00 0.00 45 1010.3
20260508192054 17 166 3.2 8.0 0.00 0.00 0.00 46 1010.6
20260508191535 17 218 4.8 14.5 0.00 0.00 0.00 47 1010.6
20260508191034 17 195 8.0 12.9 0.00 0.00 0.00 47 1010.6
20260508190535 17 217 6.4 12.9 0.00 0.00 0.00 45 1010.6
20260508190035 17 208 11.3 19.3 0.00 0.00 0.00 44 1010.6
20260508185534 17 224 4.8 9.7 0.00 0.00 0.00 45 1010.6
20260508185035 17 229 8.0 16.1 0.00 0.00 0.00 44 1010.6
20260508184555 18 201 6.4 12.9 0.00 0.00 0.00 43 1010.7
20260508184036 18 214 6.4 16.1 0.00 0.00 0.00 43 1010.6
20260508183555 19 190 4.8 11.3 0.00 0.00 0.00 42 1011.0
20260508183034 18 192 4.8 14.5 0.00 0.00 0.00 43 1011.0
20260508182534 18 208 4.8 8.0 0.00 0.00 0.00 45 1011.0
20260508182116 17 185 3.2 9.7 0.00 0.00 0.00 44 1010.9
20260508181535 17 172 4.8 12.9 0.00 0.00 0.00 44 1011.3
20260508181035 16 188 4.8 12.9 0.00 0.00 0.00 45 1011.2
20260508180534 16 222 6.4 14.5 0.00 0.00 0.00 45 1011.2
20260508180037 16 251 4.8 11.3 0.00 0.00 0.00 43 1011.2
20260508175534 16 260 6.4 12.9 0.00 0.00 0.00 43 1011.2
20260508175035 16 221 4.8 11.3 0.00 0.00 0.00 42 1011.6
20260508174535 16 234 6.4 12.9 0.00 0.00 0.00 45 1011.6
20260508174034 16 251 6.4 12.9 0.00 0.00 0.00 45 1011.6
20260508173535 16 224 9.7 16.1 0.00 0.00 0.00 45 1011.9
20260508173035 16 217 12.9 20.9 0.00 0.00 0.00 44 1011.9
20260508172535 16 218 8.0 19.3 0.00 0.00 0.00 44 1011.9
20260508172035 17 209 6.4 14.5 0.00 0.00 0.00 44 1012.0
20260508171555 16 208 4.8 17.7 0.00 0.00 0.00 45 1011.9
20260508171055 17 194 8.0 17.7 0.00 0.00 0.00 44 1012.3
20260508170535 17 176 3.2 9.7 0.00 0.00 0.00 44 1012.3
20260508170034 16 187 3.2 12.9 0.00 0.00 0.00 47 1012.3
20260508165554 16 205 8.0 16.1 0.00 0.00 0.00 46 1012.3
20260508165055 15 231 4.8 11.3 0.00 0.00 0.00 44 1012.3
20260508164534 15 258 6.4 12.9 0.00 0.00 0.00 44 1012.6
20260508164035 15 249 8.0 14.5 0.00 0.00 0.00 43 1012.6
20260508163535 15 224 6.4 16.1 0.00 0.00 0.00 43 1012.6
20260508163054 15 229 6.4 11.3 0.00 0.00 0.00 43 1012.6
20260508162555 16 215 8.0 16.1 0.00 0.00 0.00 42 1012.6
20260508162034 16 195 4.8 14.5 0.00 0.00 0.00 42 1012.7
20260508161535 16 215 4.8 9.7 0.00 0.00 0.00 43 1012.7
20260508161035 16 179 3.2 9.7 0.00 0.00 0.00 43 1012.7
20260508160534 15 221 4.8 9.7 0.00 0.00 0.00 44 1012.6
20260508160036 15 214 6.4 14.5 0.00 0.00 0.00 44 1012.6
20260508155535 16 187 4.8 9.7 0.00 0.00 0.00 45 1012.7
20260508155055 16 124 1.6 4.8 0.00 0.00 0.00 44 1012.7
20260508154535 16 148 3.2 8.0 0.00 0.00 0.00 47 1013.0
20260508154054 15 191 1.6 6.4 0.00 0.00 0.00 48 1013.0
20260508153535 14 173 3.2 6.4 0.00 0.00 0.00 47 1013.0
20260508153055 14 219 4.8 9.7 0.00 0.00 0.00 48 1013.0
20260508152535 15 195 3.2 6.4 0.00 0.00 0.00 48 1013.0
20260508152035 14 194 1.6 4.8 0.00 0.00 0.00 50 1013.0
20260508151534 13 209 3.2 4.8 0.00 0.00 0.00 52 1013.0
20260508151055 13 288 3.2 6.4 0.00 0.00 0.00 52 1013.0
20260508150534 13 282 4.8 9.7 0.00 0.00 0.00 52 1013.3
20260508150035 13 177 1.6 3.2 0.00 0.00 0.00 51 1013.3
20260508145535 14 193 3.2 4.8 0.00 0.00 0.00 51 1013.3
20260508145034 14 137 1.6 4.8 0.00 0.00 0.00 52 1013.3
20260508144534 13 98 3.2 6.4 0.00 0.00 0.00 53 1013.3
20260508144035 13 43 3.2 6.4 0.00 0.00 0.00 53 1013.3
20260508143535 13 202 3.2 6.4 0.00 0.00 0.00 57 1013.3
20260508143035 13 254 3.2 6.4 0.00 0.00 0.00 58 1013.3
20260508142534 13 34 1.6 8.0 0.00 0.00 0.00 59 1013.3
20260508142035 13 158 1.6 3.2 0.00 0.00 0.00 59 1013.6
20260508141535 12 137 1.6 4.8 0.00 0.00 0.00 60 1013.6
20260508141035 12 97 3.2 6.4 0.00 0.00 0.00 59 1013.6
20260508140554 13 135 1.6 4.8 0.00 0.00 0.00 59 1013.6
20260508140055 12 133 1.6 6.4 0.00 0.00 0.00 61 1013.6
20260508135535 12 163 3.2 4.8 0.00 0.00 0.00 61 1013.6
20260508135035 12 104 1.6 3.2 0.00 0.00 0.00 62 1013.5
20260508134535 11 35 3.2 8.0 0.00 0.00 0.00 66 1013.5
20260508134034 12 100 1.6 4.8 0.00 0.00 0.00 66 1013.5
20260508133554 11 170 1.6 3.2 0.00 0.00 0.00 67 1013.5
20260508133055 11 175 1.6 3.2 0.00 0.00 0.00 68 1013.5
20260508132655 11 352 3.2 6.4 0.00 0.00 0.00 68 1013.5
20260508132036 11 160 1.6 3.2 0.00 0.00 0.00 68 1013.5
20260508131534 10 237 3.2 6.4 0.00 0.00 0.00 69 1013.5
20260508131035 11 185 1.6 4.8 0.00 0.00 0.00 70 1013.5
20260508130534 11 147 1.6 3.2 0.00 0.00 0.00 69 1013.2
20260508130034 10 87 1.6 4.8 0.00 0.00 0.00 68 1013.2
20260508125535 10 149 1.6 3.2 0.00 0.00 0.00 71 1013.2
20260508125034 10 51 3.2 6.4 0.00 0.00 0.00 74 1013.2
20260508124534 9 200 1.6 3.2 0.00 0.00 0.00 75 1013.2
20260508124034 9 185 1.6 4.8 0.00 0.00 0.00 76 1013.2
20260508123534 9 217 0.0 4.8 0.00 0.00 0.00 76 1013.2
20260508123035 8 188 1.6 3.2 0.00 0.00 0.00 79 1013.1
20260508122534 8 189 1.6 4.8 0.00 0.00 0.00 79 1013.1
20260508122034 8 186 1.6 3.2 0.00 0.00 0.00 80 1013.2
20260508121535 7 202 3.2 4.8 0.00 0.00 0.00 80 1013.2
20260508121055 7 199 3.2 4.8 0.00 0.00 0.00 81 1013.1
20260508120535 7 196 1.6 3.2 0.00 0.00 0.00 82 1012.8
20260508120037 7 192 3.2 3.2 0.00 0.00 0.00 82 1012.8
20260508115534 7 184 1.6 3.2 0.00 0.00 0.00 82 1012.8
20260508115055 7 197 1.6 3.2 0.00 0.00 0.00 84 1012.8
20260508114556 6 200 3.2 4.8 0.00 0.00 0.00 84 1012.8
20260508114034 6 186 1.6 1.6 0.00 0.00 0.00 87 1012.4
20260508113534 6 181 1.6 1.6 0.00 0.00 0.00 89 1012.4
20260508113035 5 185 1.6 1.6 0.00 0.00 0.00 91 1012.4
20260508112535 5 177 0.0 1.6 0.00 0.00 0.00 90 1012.4
20260508112035 5 178 0.0 1.6 0.00 0.00 0.00 91 1012.4
20260508111534 5 171 0.0 0.0 0.00 0.00 0.00 92 1012.4
20260508111115 5 169 0.0 0.0 0.00 0.00 0.00 92 1012.4
20260508110534 4 168 0.0 0.0 0.00 0.00 0.00 92 1012.3
20260508110055 4 163 0.0 1.6 0.00 0.00 0.00 92 1012.3
20260508105534 4 167 0.0 0.0 0.00 0.00 0.00 91 1012.3
20260508105034 4 165 0.0 0.0 0.00 0.00 0.00 91 1012.3
20260508104534 4 164 0.0 0.0 0.00 0.00 0.00 91 1012.0
20260508104034 4 152 0.0 0.0 0.00 0.00 0.00 92 1012.3
20260508103535 4 146 0.0 1.6 0.00 0.00 0.00 91 1012.3
20260508103034 5 128 1.6 1.6 0.00 0.00 0.00 91 1012.3
20260508102534 5 130 0.0 1.6 0.00 0.00 0.00 90 1012.3
20260508102034 5 179 0.0 0.0 0.00 0.00 0.00 90 1012.4
20260508101534 5 182 1.6 1.6 0.00 0.00 0.00 91 1012.1
20260508101034 5 181 0.0 1.6 0.00 0.00 0.00 90 1012.1
20260508100534 5 178 0.0 1.6 0.00 0.00 0.00 90 1012.1
20260508100034 5 175 0.0 1.6 0.00 0.00 0.00 89 1012.1
20260508095534 5 191 1.6 3.2 0.00 0.00 0.00 90 1012.1
20260508095054 5 190 1.6 3.2 0.00 0.00 0.00 89 1012.1
20260508094535 5 182 0.0 1.6 0.00 0.00 0.00 91 1012.1
20260508094115 5 185 1.6 1.6 0.00 0.00 0.00 90 1012.1
20260508093534 5 184 1.6 1.6 0.00 0.00 0.00 89 1012.4
20260508093054 5 183 1.6 3.2 0.00 0.00 0.00 89 1012.1
20260508092555 5 186 0.0 3.2 0.00 0.00 0.00 89 1012.1
20260508092034 5 169 0.0 0.0 0.00 0.00 0.00 88 1012.1
20260508091534 5 176 0.0 1.6 0.00 0.00 0.00 88 1012.1
20260508091034 5 177 0.0 1.6 0.00 0.00 0.00 86 1012.1
20260508090534 5 180 1.6 1.6 0.00 0.00 0.00 87 1012.1
20260508090055 6 170 0.0 1.6 0.00 0.00 0.00 85 1012.1
20260508085534 6 183 0.0 3.2 0.00 0.00 0.00 84 1012.1
20260508085054 6 183 1.6 3.2 0.00 0.00 0.00 83 1012.4
20260508084534 6 185 1.6 3.2 0.00 0.00 0.00 83 1012.4
20260508084034 6 198 3.2 4.8 0.00 0.00 0.00 84 1012.4
20260508083534 6 194 1.6 3.2 0.00 0.00 0.00 83 1012.4
20260508083054 6 187 1.6 3.2 0.00 0.00 0.00 82 1012.4
20260508082534 6 184 1.6 3.2 0.00 0.00 0.00 81 1012.4
20260508082034 6 192 1.6 3.2 0.00 0.00 0.00 80 1012.4
20260508081534 6 191 1.6 3.2 0.00 0.00 0.00 80 1012.4
20260508081054 7 179 1.6 3.2 0.00 0.00 0.00 80 1012.4
20260508080534 7 186 3.2 4.8 0.00 0.00 0.00 79 1012.4
20260508080034 7 199 3.2 3.2 0.00 0.00 0.00 79 1012.4
20260508075535 7 188 1.6 3.2 0.00 0.00 0.00 79 1012.8
20260508075035 7 199 1.6 3.2 0.00 0.00 0.00 79 1012.8
20260508074555 7 193 1.6 3.2 0.00 0.00 0.00 79 1012.8
20260508074034 7 201 3.2 6.4 0.00 0.00 0.00 79 1012.5
20260508073555 6 205 3.2 4.8 0.00 0.00 0.00 79 1012.4
20260508073035 6 209 3.2 4.8 0.00 0.00 0.00 79 1012.4
20260508072535 6 193 1.6 4.8 0.00 0.00 0.00 80 1012.4
20260508072034 6 211 3.2 4.8 0.00 0.00 0.00 80 1012.5
20260508071534 6 201 1.6 3.2 0.00 0.00 0.00 80 1012.5
20260508071034 6 201 1.6 4.8 0.00 0.00 0.00 80 1012.8
20260508070534 6 204 3.2 4.8 0.00 0.00 0.00 79 1012.8
20260508070037 6 204 3.2 3.2 0.00 0.00 0.00 80 1012.8
20260508065534 6 199 1.6 3.2 0.00 0.00 0.00 79 1012.8
20260508065034 6 206 3.2 3.2 0.00 0.00 0.00 80 1012.8
20260508064534 6 192 1.6 3.2 0.00 0.00 0.00 81 1012.8
20260508064034 6 180 0.0 1.6 0.00 0.00 0.00 81 1012.8
20260508063534 6 193 1.6 3.2 0.00 0.00 0.00 80 1012.4
20260508063034 6 184 0.0 1.6 0.00 0.00 0.00 80 1012.4
20260508062534 7 209 1.6 3.2 0.00 0.00 0.00 78 1012.5
20260508062055 7 200 1.6 3.2 0.00 0.00 0.00 78 1012.8
20260508061534 7 208 3.2 4.8 0.00 0.00 0.00 77 1012.8
20260508061034 7 206 3.2 4.8 0.00 0.00 0.00 77 1012.8
20260508060534 7 203 3.2 6.4 0.00 0.00 0.00 74 1012.8
20260508060034 7 198 3.2 4.8 0.00 0.00 0.00 75 1012.8
20260508055534 7 190 1.6 4.8 0.00 0.00 0.00 77 1012.8
20260508055034 7 197 1.6 3.2 0.00 0.00 0.00 78 1012.8
20260508054534 7 200 1.6 3.2 0.00 0.00 0.00 77 1012.8
20260508054034 7 200 1.6 3.2 0.00 0.00 0.00 77 1012.8
20260508053535 7 195 1.6 3.2 0.00 0.00 0.00 74 1012.8
20260508053034 7 195 1.6 4.8 0.00 0.00 0.00 74 1012.8
20260508052534 7 197 1.6 4.8 0.00 0.00 0.00 75 1012.8
20260508052034 7 187 0.0 1.6 0.00 0.00 0.00 76 1012.8
20260508051534 7 192 1.6 1.6 0.00 0.00 0.00 76 1012.8
20260508051034 7 196 1.6 3.2 0.00 0.00 0.00 74 1012.8
20260508050534 7 202 1.6 3.2 0.00 0.00 0.00 73 1012.8
20260508050034 7 200 1.6 4.8 0.00 0.00 0.00 73 1012.8
20260508045554 7 196 1.6 3.2 0.00 0.00 0.00 74 1012.8
20260508045034 8 197 1.6 3.2 0.00 0.00 0.00 73 1012.8
20260508044534 8 204 3.2 6.4 0.00 0.00 0.00 70 1012.8
20260508044034 8 205 4.8 8.0 0.00 0.00 0.00 68 1012.8
20260508043534 8 196 3.2 8.0 0.00 0.00 0.00 68 1012.8
20260508043034 8 190 3.2 6.4 0.00 0.00 0.00 68 1012.8
20260508042554 8 187 3.2 6.4 0.00 0.00 0.00 68 1012.8
20260508042054 8 199 3.2 4.8 0.00 0.00 0.00 67 1012.8
20260508041554 8 197 3.2 6.4 0.00 0.00 0.00 66 1012.8
20260508041035 9 200 3.2 6.4 0.00 0.00 0.00 66 1012.8
20260508040534 9 202 3.2 8.0 0.00 0.00 0.00 65 1012.8
20260508040034 9 210 4.8 9.7 0.00 0.00 0.00 65 1012.8
20260508035615 9 205 4.8 9.7 0.00 0.00 0.00 65 1012.8
20260508035034 10 207 6.4 9.7 0.00 0.00 0.00 64 1013.1
20260508034535 10 217 6.4 11.3 0.00 0.00 0.00 63 1013.1
20260508034054 10 208 6.4 11.3 0.00 0.00 0.00 64 1013.1
20260508033534 10 206 6.4 9.7 0.00 0.00 0.00 64 1013.1
20260508033034 10 202 4.8 9.7 0.00 0.00 0.00 64 1013.5
20260508032534 10 211 4.8 8.0 0.00 0.00 0.00 64 1013.5
20260508032034 10 205 4.8 8.0 0.00 0.00 0.00 64 1013.1
20260508031535 10 205 3.2 8.0 0.00 0.00 0.00 63 1013.1
20260508031034 10 203 3.2 6.4 0.00 0.00 0.00 62 1013.1
20260508030534 10 204 3.2 8.0 0.00 0.00 0.00 62 1013.1
20260508030034 10 214 4.8 8.0 0.00 0.00 0.00 62 1013.1
20260508025535 10 217 4.8 8.0 0.00 0.00 0.00 61 1013.1
20260508025034 10 217 6.4 14.5 0.00 0.00 0.00 60 1013.1
20260508024534 10 213 4.8 9.7 0.00 0.00 0.00 61 1013.1
20260508024054 10 207 4.8 9.7 0.00 0.00 0.00 60 1013.1
20260508023534 10 228 6.4 11.3 0.00 0.00 0.00 59 1013.1
20260508023034 10 238 6.4 16.1 0.00 0.00 0.00 59 1013.1
20260508022534 11 236 6.4 12.9 0.00 0.00 0.00 58 1013.2
20260508022034 11 229 6.4 14.5 0.00 0.00 0.00 55 1013.2
20260508021554 11 218 8.0 14.5 0.00 0.00 0.00 53 1013.1
20260508021034 11 217 4.8 8.0 0.00 0.00 0.00 54 1013.1
20260508020534 11 208 4.8 8.0 0.00 0.00 0.00 52 1012.8
20260508020034 11 204 6.4 9.7 0.00 0.00 0.00 51 1012.8
20260508015534 11 205 4.8 8.0 0.00 0.00 0.00 50 1012.5
20260508015035 11 228 3.2 8.0 0.00 0.00 0.00 51 1012.5
20260508014534 11 220 3.2 8.0 0.00 0.00 0.00 51 1012.5
20260508014034 11 235 4.8 9.7 0.00 0.00 0.00 50 1012.5
20260508013534 11 243 8.0 16.1 0.00 0.00 0.00 51 1012.5
20260508013034 11 232 9.7 24.1 0.00 0.00 0.00 52 1012.4
20260508012534 10 206 3.2 6.4 0.00 0.00 0.00 53 1012.1
20260508012034 10 179 1.6 1.6 0.00 0.00 0.00 53 1012.1
20260508011534 11 180 0.0 1.6 0.00 0.00 0.00 57 1012.1
20260508011034 11 187 1.6 1.6 0.00 0.00 0.00 53 1012.1
20260508010554 11 182 0.0 1.6 0.00 0.00 0.00 51 1012.1
20260508010034 11 187 1.6 1.6 0.00 0.00 0.00 51 1012.1
20260508005554 11 186 1.6 1.6 0.00 0.00 0.00 46 1012.1
20260508005054 11 182 0.0 1.6 0.00 0.00 0.00 48 1012.1
20260508004535 11 179 0.0 0.0 0.00 0.00 0.00 50 1012.0
20260508004054 11 179 0.0 0.0 0.00 0.00 0.00 49 1012.0
20260508003534 11 185 0.0 1.6 0.00 0.00 0.00 47 1012.1
20260508003034 11 203 1.6 3.2 0.00 0.00 0.00 45 1012.1
20260508002554 12 213 1.6 3.2 0.00 0.00 0.00 45 1012.1
20260508002034 12 211 1.6 4.8 0.00 0.00 0.00 43 1012.1
20260508001534 12 232 4.8 8.0 0.00 0.00 0.00 41 1012.0
20260508001034 12 242 3.2 8.0 0.00 0.00 0.00 41 1012.0
20260508000534 13 247 6.4 11.3 0.00 0.00 0.00 39 1012.0
20260508000035 12 247 4.8 11.3 0.00 0.00 0.00 40 1012.0
20260507235534 13 262 4.8 8.0 0.00 0.00 0.00 40 1012.0
20260507235055 13 285 4.8 9.7 0.00 0.00 0.00 39 1012.0
20260507234534 13 254 6.4 12.9 0.00 0.00 0.00 39 1011.9
20260507234034 13 252 4.8 9.7 0.00 0.00 0.00 39 1012.3
20260507233535 14 268 6.4 12.9 0.00 0.00 0.00 37 1012.0
20260507233034 14 286 6.4 11.3 0.00 0.00 0.00 38 1012.0
20260507232614 13 258 6.4 12.9 0.00 0.00 0.00 38 1012.3
20260507232035 13 254 8.0 12.9 0.00 0.00 0.00 38 1012.2
20260507231554 13 261 9.7 20.9 0.00 0.00 0.00 38 1012.3
20260507231034 13 236 8.0 12.9 0.00 0.00 0.00 38 1012.3
20260507230534 13 256 6.4 12.9 0.00 0.00 0.00 38 1012.3
20260507230034 13 242 6.4 12.9 0.00 0.00 0.00 38 1012.3
20260507225534 13 269 6.4 11.3 0.00 0.00 0.00 38 1012.3
20260507225034 13 268 6.4 11.3 0.00 0.00 0.00 38 1012.3
20260507224554 13 279 8.0 12.9 0.00 0.00 0.00 37 1012.3
20260507224035 13 294 9.7 16.1 0.00 0.00 0.00 37 1012.3
20260507223534 15 264 8.0 16.1 0.00 0.00 0.00 36 1012.3
20260507223034 15 300 8.0 14.5 0.00 0.00 0.00 35 1012.3
20260507222554 13 251 6.4 14.5 0.00 0.00 0.00 37 1012.3
20260507222034 13 305 11.3 19.3 0.00 0.00 0.00 37 1012.2
20260507221534 13 278 9.7 19.3 0.00 0.00 0.00 38 1012.3
20260507221115 14 247 9.7 17.7 0.00 0.00 0.00 36 1012.4